sat.trackr.live / text

‹ back to catalog

STARLINK-30356

NORAD 57748 · 2023-131S

PAYLOAD ACTIVE UNKNOWN

§ Identity

Operator
Country
US
Launch date
2023-09-01
Launch site
AFETR
Launch vehicle
Mass (kg)
RCS (m²)

Purposes: comms

External: N2YO · Heavens-Above · Gunter

§ Orbital elements

Epoch: 2026-05-25T03:32:53.640384Z

Period
94.27 min
Inclination
43.0036°
Eccentricity
0.0001233
Mean motion
15.27579351 rev/d
Perigee alt
482.2 km
Apogee alt
483.9 km
Semi-major
6,861.2 km
B*
4.6563e-5
RAAN
100.3237°
Arg perigee
269.9154°
Mean anomaly
90.1557°
Rev number
15,161

§ Raw data

STARLINK-303561 57748U 23131S   26145.14784306  .00001019  00000+0  46563-4 0  99902 57748  43.0036 100.3237 0001233 269.9154  90.1557 15.27579351151616

JSON: /api/v1/satellites/57748 · /tle

For live sub-satellite position, see the globe view (requires WebGL).

§ Visibility from observer

Set your observer location to see the next 7 days of passes ≥ 10°. The values pass through the URL so the page stays shareable.

No JS? Fill the form by hand. The geolocation button needs JavaScript.